User: anonymous   Login
Location: Unspecified
(0.0000°N, 0.0000°E)
Time: 09:40:12
(UTC+00:00)
Language:

Polar BEAR P87-1 - Orbit

View from above orbital plane
View from above orbital plane
View from above satellite
View from above satellite

Ground track
Ground track

The orbit data is extracted from the following two-line orbital elements,

1 17070U 86088A   18267.62291785 +.00000054 +00000-0 +44502-4 0  9997
2 17070 089.5257 304.1774 0040020 145.0424 017.3307 13.74763103597563
Epoch (UTC): 24 September 2018 14:57:00
Eccentricity: 0.0040020
inclination: 89.5257°
perigee height: 953 km
apogee height: 1012 km
right ascension of ascending node: 304.1774°
argument of perigee: 145.0424°
revolutions per day: 13.74763103
mean anomaly at epoch: 17.3307°
orbit number at epoch: 59756

The dashed part of the orbit path shows where the satellite is in the earth's shadow,  

DLR